Theta_e
330 330 330 329 329 328 328 328 329 329 329 330 329 329 329 329 329 329 329 329 329 329 329 329 329 329 329 328 328 327 327 327 327 327 327 327 326 326 325 324 323 323
330 330 330 329 329 328 328 328 328 329 329 329 329 329 329 329 329 329 329 329 330 329 329 329 329 329 329 329 328 328 327 327 327 327 327 327 327 326 325 324 323 322
329 329 329 329 329 328 328 328 328 328 329 329 329 329 329 330 329 329 330 329 330 330 330 330 329 329 329 329 329 328 327 328 327 327 327 327 326 326 325 323 322 321
329 329 329 329 329 329 328 328 328 328 328 328 328 329 329 330 329 330 330 330 330 330 330 330 329 329 329 329 328 328 328 328 328 327 327 327 326 325 324 323 321 321
329 329 329 329 329 329 328 328 328 328 328 328 328 329 329 329 329 329 330 330 330 330 330 330 329 329 329 329 328 327 327 327 327 327 327 326 325 324 323 322 321 321
328 328 329 329 329 329 329 329 328 328 328 328 328 328 329 329 329 329 329 329 329 329 329 329 329 329 328 328 328 327 327 327 327 327 326 326 325 323 322 322 321 320
328 328 328 328 329 329 329 329 329 328 328 328 328 328 329 329 329 329 329 329 328 328 329 329 328 328 328 328 328 327 327 327 327 327 326 325 324 323 321 321 320 319
327 327 328 328 329 329 329 329 329 329 329 328 329 329 328 328 328 329 329 328 328 328 328 328 328 328 328 328 327 327 326 325 325 325 325 324 323 322 321 320 319 317
327 327 328 328 328 328 329 329 329 329 330 329 329 329 328 329 328 328 328 328 328 328 328 328 328 328 327 327 327 326 325 325 325 325 325 323 322 321 320 319 318 316
325 326 327 327 328 328 328 329 329 329 329 329 329 329 328 328 328 328 328 328 328 328 328 328 328 328 328 327 326 324 323 323 324 325 325 323 321 321 320 319 318 316
320 321 323 323 324 326 326 327 328 328 328 328 328 328 328 328 328 328 328 328 328 328 328 328 328 328 327 326 325 324 323 323 324 325 323 321 320 321 320 318 317 316
317 318 319 320 322 323 324 325 326 326 327 327 327 327 327 327 327 328 328 328 328 328 328 328 327 326 325 325 324 325 325 324 323 322 320 317 318 320 319 317 316 316
317 318 320 321 322 323 324 325 325 325 326 326 327 327 327 327 327 327 328 328 328 329 328 328 328 327 326 326 325 324 325 323 320 318 315 314 316 318 316 315 315 315
317 320 321 322 323 323 324 324 324 325 325 325 326 326 327 327 327 328 328 327 327 328 328 328 327 326 325 324 323 323 323 321 318 315 313 313 314 313 312 313 314 314
316 318 319 320 321 321 322 322 322 322 323 323 323 324 325 325 325 326 326 326 325 325 325 325 324 324 324 323 322 322 322 319 316 314 312 313 313 310 309 310 311 311
315 315 315 315 315 315 316 316 317 318 319 320 320 320 321 321 322 322 322 322 323 323 323 323 323 323 323 322 322 321 320 318 315 313 313 313 311 309 309 311 311 309
313 312 312 311 310 310 310 310 312 314 315 316 317 318 319 319 320 320 320 321 321 321 322 322 321 321 321 321 320 319 318 315 313 313 312 311 309 308 310 312 311 307
311 309 308 307 306 306 307 308 310 312 313 315 316 317 318 318 318 318 318 319 319 319 320 320 319 319 319 318 317 316 315 313 312 312 311 309 308 309 310 310 309 306
308 307 306 305 304 304 305 307 308 310 311 313 314 315 316 316 316 316 316 316 317 317 317 317 317 316 316 315 314 314 313 311 310 310 309 308 308 308 308 307 305 303
305 304 304 303 302 302 303 305 306 308 309 311 312 313 313 313 314 314 314 314 314 314 314 314 314 314 313 313 312 311 310 309 309 308 307 307 305 304 303 302 301 302
302 302 302 302 303 304 305 305 305 306 307 308 309 310 311 312 312 312 312 312 312 312 312 313 313 313 312 311 310 309 309 308 307 306 305 304 303 304 304 303 303 304
301 302 302 303 304 305 306 307 307 307 307 308 308 309 310 310 310 310 310 311 311 312 311 312 312 311 310 309 308 307 307 306 305 304 303 302 302 304 304 304 303 302
301 302 302 303 305 306 306 307 308 308 308 308 308 309 309 310 309 309 309 310 310 310 310 310 310 309 308 307 305 305 304 304 303 302 300 300 299 300 300 299 298 297
301 302 303 304 305 306 307 307 307 308 307 307 308 307 307 307 307 307 307 307 307 307 307 307 306 305 305 304 304 303 303 302 302 300 299 298 298 298 298 298 297 296
301 301 302 304 305 306 307 307 307 307 307 306 306 306 305 305 305 304 304 305 305 305 305 304 304 303 303 302 302 302 301 301 301 300 298 297 297 297 296 296 295 293
301 301 302 303 305 306 305 305 305 305 305 305 304 304 304 304 304 303 303 304 304 304 304 303 303 302 302 302 302 301 300 300 299 299 298 297 296 296 295 293 292 291
Wind_Speed
41 40 40 39 39 39 39 38 37 36 37 37 38 39 39 40 40 39 40 42 43 43 43 43 43 43 42 41 41 40 40 39 39 38 36 35 35 35 35 34 33 32
40 40 40 40 40 40 40 38 37 36 37 37 36 37 37 37 37 38 39 40 41 43 43 42 42 42 42 41 41 40 40 40 39 38 36 36 36 36 36 34 32 32
41 41 41 41 42 41 39 37 36 36 37 36 36 37 37 37 37 37 38 39 41 42 42 42 41 41 41 41 41 41 40 40 40 38 37 37 37 37 36 33 30 31
43 43 42 42 42 41 38 36 36 38 37 37 37 37 37 37 37 37 38 39 40 41 41 41 41 41 41 41 41 41 41 40 40 39 37 36 37 36 34 32 31 32
42 42 41 41 41 40 37 36 38 38 38 38 38 37 37 37 37 37 37 38 39 39 40 40 41 41 41 40 40 40 40 40 40 39 38 37 36 34 32 31 31 32
39 39 40 40 39 38 38 39 40 39 38 39 38 38 38 38 38 38 38 38 39 39 39 39 40 40 40 40 40 40 40 40 41 40 38 37 35 32 31 32 33 35
37 38 38 38 37 37 38 40 40 39 38 38 37 38 39 38 39 39 39 39 39 38 39 39 39 39 38 39 39 40 41 42 42 41 38 37 35 32 32 33 35 35
37 36 35 35 35 36 37 38 38 39 38 38 38 39 38 38 39 39 39 39 39 38 38 38 39 38 39 39 40 40 41 40 40 39 37 37 36 35 35 35 35 34
34 33 33 33 33 35 36 37 37 37 37 37 38 38 38 38 38 38 38 38 38 37 37 38 39 39 39 40 41 42 42 41 41 39 38 38 39 39 38 37 36 35
29 30 30 30 31 33 34 35 35 35 35 36 36 36 36 36 36 36 37 37 37 36 37 38 39 39 39 41 42 40 38 39 39 38 40 42 42 41 40 39 38 36
26 26 27 28 29 30 31 32 32 33 33 33 34 34 34 34 34 35 35 35 36 36 36 37 38 39 40 40 38 33 31 34 37 40 43 45 44 41 41 41 38 36
23 24 24 25 26 26 27 27 28 28 29 30 30 31 31 32 33 34 34 34 35 35 35 36 37 38 37 34 32 32 35 39 41 42 44 43 42 41 41 41 37 35
22 22 22 22 23 23 23 23 22 23 23 24 26 27 28 29 30 31 32 33 34 34 34 34 35 36 35 33 32 34 36 39 41 42 40 38 39 40 40 39 36 34
21 21 21 21 22 22 22 22 21 20 19 18 20 23 25 27 27 28 29 30 31 32 33 34 35 35 32 29 30 32 36 39 40 39 37 36 36 36 35 35 34 33
20 20 20 20 21 21 21 21 21 20 19 18 18 18 20 21 22 24 25 26 28 29 30 31 32 31 27 27 30 33 37 39 38 37 35 35 34 33 32 32 31 31
19 19 20 20 20 20 21 22 22 22 22 22 22 21 20 20 20 21 22 24 24 24 25 27 28 29 28 30 34 35 36 37 36 35 35 35 35 33 31 30 31 30
18 19 19 19 19 18 18 18 19 20 21 22 22 23 22 21 21 22 23 23 23 23 25 26 29 30 31 33 34 34 34 34 33 33 34 34 33 32 31 32 32 31
19 18 18 18 18 18 17 17 17 18 19 20 19 20 20 20 20 21 21 21 21 22 23 25 26 27 29 29 30 29 30 31 31 33 33 32 32 32 32 32 31 30
21 20 19 18 17 16 17 18 18 17 17 18 18 17 18 18 18 18 18 19 20 21 21 22 22 23 23 24 25 26 27 27 29 31 32 31 32 32 31 31 30 29
21 20 18 16 12 11 12 15 16 16 15 14 14 13 13 12 12 13 13 14 14 15 16 16 17 18 19 20 21 22 23 25 27 28 29 29 29 28 28 28 27 26
18 17 15 13 11 10 10 11 12 13 14 13 13 12 12 12 12 12 12 12 11 12 11 12 13 15 16 18 19 20 21 23 25 26 27 26 26 26 27 27 26 26
16 15 14 12 12 12 12 12 11 11 13 13 14 14 13 13 13 13 14 14 14 13 12 12 13 14 15 16 16 17 19 21 23 24 25 25 25 26 27 27 27 27
15 15 14 13 14 14 13 13 13 13 13 13 13 13 13 13 13 13 13 13 13 14 13 13 13 13 13 13 14 14 16 19 21 21 22 22 23 24 25 25 25 26
15 14 14 14 14 14 13 13 13 12 12 11 11 11 11 11 11 10 11 11 11 12 11 12 12 11 11 11 11 12 14 17 20 21 22 22 23 23 24 24 25 26
15 14 14 14 13 13 13 12 11 10 9 9 9 9 8 8 8 8 9 9 9 9 9 10 10 10 10 10 11 13 15 18 20 22 23 23 23 23 23 24 25 27
15 15 14 13 12 12 12 12 11 10 10 9 9 10 9 9 8 8 8 8 7 7 8 8 9 8 8 9 10 13 16 18 20 21 22 22 22 22 22 23 25 26
Wind_Direction
226 226 227 228 230 231 232 232 232 232 233 232 233 234 235 235 235 233 233 234 234 234 235 235 236 236 236 236 236 236 234 234 234 235 235 236 238 238 236 234 235 239
228 228 229 230 231 233 233 233 234 234 236 237 237 238 239 239 238 236 236 236 235 236 236 236 236 236 236 236 236 235 234 234 235 235 237 238 239 237 234 232 236 242
229 229 229 230 232 234 235 235 235 237 238 239 240 241 241 241 241 239 238 237 237 237 237 237 237 237 236 236 236 235 233 232 233 235 237 238 237 234 232 233 239 244
230 230 230 232 233 234 236 236 236 237 238 239 240 241 242 242 242 241 240 239 238 238 238 237 237 237 236 235 234 234 233 232 233 235 236 237 235 232 232 235 240 242
230 230 231 232 234 234 235 235 237 238 237 238 240 240 241 242 241 241 240 239 238 237 238 238 237 236 236 235 233 232 231 231 232 233 233 234 233 232 235 239 241 240
230 231 232 233 234 234 234 235 237 238 237 239 239 240 241 241 241 242 241 240 239 238 238 238 238 236 235 234 233 232 232 232 231 230 229 231 233 234 239 242 240 238
231 232 232 233 233 234 234 236 237 238 239 240 240 241 242 242 242 243 243 243 241 239 239 238 238 236 236 235 234 233 233 232 230 227 227 230 232 234 236 238 237 234
232 233 234 234 235 235 236 237 238 239 240 241 242 243 243 242 243 244 244 244 242 241 240 239 239 239 239 237 234 233 232 230 227 225 227 229 230 231 232 232 232 230
234 235 236 236 237 238 239 240 241 242 243 242 243 244 244 244 245 244 244 244 242 241 241 240 240 239 238 236 234 232 230 228 227 227 230 230 228 228 229 228 226 226
236 237 237 238 239 240 242 243 245 245 245 245 245 245 245 245 245 244 243 242 240 239 239 238 237 236 236 235 231 228 227 227 227 230 233 232 227 227 228 226 224 224
236 237 238 239 240 241 243 245 246 246 246 246 246 245 245 245 244 242 240 239 238 237 237 236 235 234 233 231 229 232 239 241 239 240 238 231 225 226 227 225 223 224
234 235 237 238 239 240 241 242 243 245 245 246 245 245 245 243 242 240 239 238 238 237 237 237 237 235 231 232 238 245 249 248 244 241 237 229 223 225 228 226 224 226
230 231 232 233 233 233 234 234 236 238 240 243 243 243 243 242 241 239 238 237 238 238 239 240 240 237 235 238 245 248 247 245 241 237 233 227 223 225 227 226 225 228
224 225 226 227 228 229 229 228 227 229 231 235 236 237 238 240 240 239 239 239 238 238 239 240 239 236 237 243 248 249 247 245 240 236 231 226 225 226 226 224 225 228
223 225 227 228 230 231 231 231 230 230 230 231 233 234 236 238 238 238 239 240 240 238 236 237 236 235 241 252 254 250 247 244 239 235 232 228 228 228 225 225 228 230
221 224 228 231 234 236 237 237 236 236 237 238 239 241 244 246 246 246 247 247 245 243 241 241 240 241 247 256 255 250 246 242 238 235 232 230 229 227 224 227 231 233
218 223 229 232 234 235 236 237 237 236 237 238 239 240 242 244 247 249 251 251 251 252 252 252 251 249 250 252 251 249 246 242 238 235 232 229 229 228 226 228 230 230
220 225 231 234 234 231 229 230 232 232 233 235 238 239 241 244 246 248 250 252 253 255 255 256 256 254 252 251 250 249 248 245 241 237 233 230 229 229 228 229 229 227
225 228 232 236 237 233 228 227 228 230 232 235 239 241 242 244 247 249 251 252 255 256 257 258 257 256 257 257 255 252 249 246 241 237 235 233 232 231 229 229 228 226
227 228 229 229 229 224 223 225 228 230 231 231 234 237 239 242 245 248 251 253 255 256 259 262 263 262 262 259 255 252 249 246 242 238 236 235 233 230 228 228 228 229
220 219 217 215 213 211 214 219 223 226 228 229 232 236 240 245 250 254 257 260 263 264 265 267 268 267 265 261 257 253 249 245 242 239 236 234 232 231 232 235 236 237
212 210 210 209 210 211 213 214 212 213 216 217 221 225 229 235 240 244 247 248 252 257 260 261 263 262 260 259 257 253 248 244 242 239 237 235 234 235 237 238 237 237
209 208 207 207 210 213 214 214 213 215 217 217 219 222 224 229 235 239 242 243 244 249 253 256 259 260 259 257 255 252 249 245 241 237 235 234 234 235 236 236 237 237
206 207 208 209 212 213 213 215 216 218 220 220 222 225 226 230 235 238 240 242 243 245 248 250 253 255 255 254 251 247 244 240 236 232 230 230 233 235 237 238 239 238
200 200 205 210 213 213 215 217 217 216 217 217 218 219 220 220 223 225 228 232 236 240 241 241 244 246 246 245 240 235 234 232 231 228 226 228 232 234 236 237 237 236
194 194 198 202 210 216 217 216 213 210 211 213 210 208 207 207 207 209 214 217 222 230 235 237 240 239 237 238 235 232 231 230 229 228 228 229 233 235 236 236 235 235